Location: Buisson
(44.2787°N, 4.9969°E)
Time: 06:58:58
(UTC+00:00)

Cosmos 2151 Rocket - Pass Details

Date: 18 April 2021
Orbit: 618 x 641 km, 82.5° (Epoch: 06 May)

Event Time Altitude Azimuth Distance (km) Brightness Sun altitude
Rises 04:05:27 0° 343° (NNW) 2,949 7.1 -8.5°
Reaches altitude 10° 04:07:50 10° 334° (NNW) 2,038 6.2 -8.1°
Maximum altitude 04:11:56 35° 269° (W) 1,036 4.3 -7.5°
Drops below altitude 10° 04:16:02 10° 204° (SSW) 2,028 5.8 -6.8°
Sets 04:18:24 0° 195° (SSW) 2,933 6.7 -6.4°
